Flag for U.S.A. Weather past 2 weeks in Naples, Florida, U.S.A.

Now
88 °F

Scattered clouds.


Feels Like: 97 °F
Forecast: 75 / 89 °F
Wind: 9 mph from West

Location: Naples Municipal

Current Time: Sep 16, 2014 at 2:09:39 PM

Latest Report: Sep 16, 2014 at 12:53 PM


Visibility: 10 mi

Pressure: 30.05 "Hg

Humidity: 63%

Dew point: 74 °F

Location of NaplesLocation

Historic Weather in Naples — Graph

°F

Naples temperature yesterday

Maximum temperature yesterday: 93 °F (at 2:53 PM)
Minimum temperature yesterday: 74 °F (at 5:53 AM)
Average temperature yesterday: 82 °F

Past Weeks' High & Low Weather Summary

 TemperatureHumidityPressure
High93 °F (Sep 15, 2:53 PM)100% (Sep 1, 4:53 PM)30.15 "Hg (Sep 1, 4:53 PM)
Low73 °F (Sep 3, 3:53 AM)46% (Sep 15, 2:53 PM)29.88 "Hg (Sep 12, 5:53 PM)
Average80 °F82%30.02 "Hg
* Reported Sep 1 11:53 AM — Sep 16 11:53 AM, Naples, Weather by CustomWeather, © 2014

Note: Actual official high and low records may vary slightly from our data, if they occured in-between our weather recording intervals... More about our weather records

Advertising

Naples weather history for previous 24 hours

 ConditionsComfort  
Time TempWeatherWind HumidityBarometerVisibility
11:53 AM
Sep 16
90 °FScattered clouds.5 mph52%30.06 "Hg10 mi
10:53 AM86 °FSunny.3 mph65%30.06 "Hg10 mi
9:53 AM84 °FSunny.5 mph72%30.06 "Hg10 mi
8:53 AM81 °FSunny.3 mph79%30.08 "Hg10 mi
7:53 AM78 °FClear.No wind87%30.08 "Hg10 mi
6:53 AM77 °FClear.No wind90%30.08 "Hg10 mi
5:53 AM77 °FClear.No wind90%30.06 "Hg10 mi
4:53 AM79 °FClear.No wind84%30.05 "Hg10 mi
3:53 AM79 °FClear.No wind84%30.06 "Hg10 mi
2:53 AM80 °FClear.No wind79%30.08 "Hg10 mi
1:53 AM80 °FClear.No wind79%30.10 "Hg10 mi
12:53 AM80 °FClear.5 mph79%30.11 "Hg10 mi
11:53 PM
Sep 15
81 °FClear.6 mph77%30.13 "Hg10 mi
10:53 PM82 °FClear.6 mph82%30.13 "Hg10 mi
9:53 PM84 °FClear.3 mph77%30.11 "Hg10 mi
8:53 PM85 °FClear.3 mph72%30.10 "Hg10 mi
7:53 PM85 °FSunny.5 mph72%30.08 "Hg10 mi
6:53 PM86 °FSunny.6 mph67%30.06 "Hg10 mi
5:53 PM88 °FSunny.6 mph65%30.06 "Hg10 mi
4:53 PM89 °FScattered clouds.No wind63%30.07 "Hg10 mi
3:53 PMN/AScattered clouds.12 mphN/A30.08 "Hg10 mi
2:53 PM93 °FSunny.5 mph46%30.09 "Hg10 mi
Weather by CustomWeather, © 2014

See weather overviewHow to use our weather pages